User: anonymous   Login
Location: Unspecified
(0.0000°N, 0.0000°E)
Time: 00:14:46
(UTC+00:00)
Language:

OAO 3 Copernicus - Orbit

View from above orbital plane
View from above orbital plane
View from above satellite
View from above satellite

Ground track
Ground track

The orbit data is extracted from the following two-line orbital elements,

1  6153U 72065A   17326.25699584 +.00000075 +00000-0 +20496-4 0  9999
2  6153 035.0067 233.1173 0007487 276.6869 227.7388 14.57858100403696
Epoch (UTC): 22 November 2017 06:10:04
Eccentricity: 0.0007487
inclination: 35.0067°
perigee height: 695 km
apogee height: 705 km
right ascension of ascending node: 233.1173°
argument of perigee: 276.6869°
revolutions per day: 14.57858100
mean anomaly at epoch: 227.7388°
orbit number at epoch: 40369

The dashed part of the orbit path shows where the satellite is in the earth's shadow,  

DLR